Juneau, AK

10:45 PM AKDT on May 28, 2017 (GMT -0800)
Juneau International

Weather History for PAJN - February, 2014

Change the Weather History Date:

Thursday, February 13, 2014

  Actual Average Record
Temperature  
Mean Temperature 21 °F 30 °F  
Max Temperature 30 °F 35 °F 50 °F (2004)
Min Temperature 12 °F 25 °F -10 °F (1975)
Degree Days  
Heating Degree Days 44 35  
Month to date heating degree days 580 462  
Since 1 July heating degree days 5079 5322  
Moisture  
Dew Point 20 °F    
Average Humidity 87    
Maximum Humidity 100    
Minimum Humidity 74    
Precipitation  
Precipitation 0.05 in 0.15 in 2.35 in (1949)
Month to date precipitation 0.08 1.95  
Year to date precipitation 10.23 7.30  
Snow  
Snow 1.10 in 0.60 in 23.50 in (1949)
Month to date snowfall 2.9 9.1  
Since 1 July snowfall 66.9 66.3  
Snow Depth 2.00 in    
Sea Level Pressure  
Sea Level Pressure 29.34 in    
Wind  
Wind Speed 9 mph (ESE)    
Max Wind Speed 28 mph    
Max Gust Speed 31 mph    
Visibility 6 miles    
Events Snow    
T = Trace of Precipitation, MM = Missing Value Source: NWS Daily Summary

Daily Weather History Graph

Daily Weather History Graph

Search for Another Location

Airport or City:

Trip Planner

Search our weather history database for the weather conditions in past years. The results will help you decide how hot, cold, wet, or windy it might be!

Date:

Astronomy

Feb. 13, 2014 Rise Set
Actual Time 7:35 AM AKST 4:50 PM AKST
Civil Twilight 6:53 AM AKST 5:32 PM AKST
Nautical Twilight 6:06 AM AKST 6:19 PM AKST
Astronomical Twilight 5:21 AM AKST 7:05 PM AKST
Moon 4:07 PM AKST (2/13) 6:34 AM AKST (2/13)
Length of Visible Light 10h 39m
Length of Day
9h 15m
Waxing Gibbous, 99% of the Moon is Illuminated
Feb 13
Waxing Gibbous
Feb 14
Full
Feb 22
Last Quarter
Feb 28
New
Mar 8
First Quarter

Hourly Weather History & Observations

Time (AKST) Temp. Windchill Dew Point Humidity Pressure Visibility Wind Dir Wind Speed Gust Speed Precip Events Conditions
12:46 AM 17.1 °F - 12.9 °F 84% 29.44 in 2.5 mi Calm Calm - 0.00 in Snow Light Snow
12:53 AM 17.1 °F - 14.0 °F 88% 29.44 in 2.5 mi Calm Calm - 0.00 in Snow Light Snow
12:56 AM 17.1 °F - 14.0 °F 88% 29.44 in 4.0 mi Calm Calm - 0.00 in Snow Light Snow
1:16 AM 17.1 °F - 12.9 °F 84% 29.43 in 4.0 mi Calm Calm - 0.01 in Snow Light Snow
1:53 AM 16.0 °F 10.4 °F 12.9 °F 88% 29.42 in 9.0 mi West 3.5 mph - 0.01 in   Overcast
2:53 AM 15.1 °F - 12.0 °F 88% 29.40 in 10.0 mi Calm Calm - N/A   Overcast
3:27 AM 15.1 °F - 10.9 °F 84% 29.39 in 10.0 mi Calm Calm - N/A   Overcast
3:53 AM 14.0 °F 8.2 °F 12.0 °F 92% 29.38 in 10.0 mi East 3.5 mph - N/A   Overcast
4:53 AM 12.9 °F - 12.0 °F 96% 29.37 in 10.0 mi Calm Calm - N/A   Overcast
5:53 AM 12.9 °F - 10.9 °F 92% 29.35 in 10.0 mi Calm Calm - N/A   Overcast
6:53 AM 14.0 °F 8.2 °F 10.9 °F 88% 29.34 in 10.0 mi SW 3.5 mph - N/A   Overcast
7:53 AM 14.0 °F - 10.9 °F 88% 29.33 in 10.0 mi Calm Calm - N/A   Overcast
8:53 AM 16.0 °F - 14.0 °F 92% 29.31 in 10.0 mi Calm Calm - N/A   Overcast
9:53 AM 24.1 °F 12.0 °F 17.1 °F 75% 29.31 in 10.0 mi ENE 13.8 mph 23.0 mph N/A   Overcast
10:36 AM 26.1 °F 12.7 °F 15.1 °F 63% 29.33 in 2.0 mi ESE 18.4 mph - 0.00 in Snow Light Snow
10:53 AM 26.1 °F 12.7 °F 19.0 °F 75% 29.35 in 1.0 mi ESE 18.4 mph 29.9 mph 0.00 in Snow Light Snow
11:13 AM 25.0 °F 10.6 °F 19.9 °F 81% 29.35 in 1.0 mi ESE 20.7 mph 28.8 mph 0.00 in Snow Light Snow
11:28 AM 25.0 °F 9.5 °F 21.0 °F 85% 29.34 in 3.0 mi ESE 24.2 mph - 0.00 in Snow Light Snow
11:53 AM 26.1 °F 11.6 °F 21.9 °F 84% 29.33 in 4.0 mi ESE 21.9 mph 29.9 mph 0.00 in Snow Light Snow
12:25 PM 26.1 °F 12.0 °F 23.0 °F 88% 29.32 in 3.0 mi ESE 20.7 mph - 0.00 in Snow Light Snow
12:34 PM 27.0 °F 13.2 °F 23.0 °F 85% 29.32 in 3.0 mi ESE 20.7 mph - 0.00 in Snow Light Snow
12:53 PM 27.0 °F 13.9 °F 23.0 °F 85% 29.32 in 4.0 mi ESE 18.4 mph - 0.00 in Snow Light Snow
1:36 PM 28.0 °F 15.7 °F 24.1 °F 85% 29.31 in 4.0 mi ESE 17.3 mph - 0.01 in Snow Light Snow
1:53 PM 28.0 °F 16.1 °F 25.0 °F 88% 29.32 in 1.0 mi ESE 16.1 mph - 0.01 in Snow Light Snow
2:41 PM 28.0 °F 16.1 °F 25.0 °F 88% 29.33 in 2.0 mi East 16.1 mph - 0.01 in Snow Light Snow
2:53 PM 28.0 °F 16.5 °F 25.0 °F 88% 29.33 in 2.0 mi East 15.0 mph - 0.01 in Snow Light Snow
3:29 PM 28.0 °F 15.7 °F 25.0 °F 88% 29.33 in 3.0 mi East 17.3 mph - 0.01 in Snow Light Snow
3:53 PM 28.0 °F 15.7 °F 25.0 °F 88% 29.33 in 3.0 mi East 17.3 mph - 0.01 in Snow Light Snow
4:53 PM 28.0 °F 16.5 °F 25.0 °F 88% 29.34 in 3.0 mi East 15.0 mph - 0.00 in Snow Light Snow
5:53 PM 28.9 °F 19.2 °F 26.1 °F 89% 29.33 in 5.0 mi East 11.5 mph - 0.01 in Snow Light Snow
6:53 PM 28.9 °F 19.2 °F 26.1 °F 89% 29.33 in 6.0 mi East 11.5 mph - 0.00 in Snow Light Snow
7:53 PM 28.0 °F 16.1 °F 26.1 °F 92% 29.31 in 7.0 mi East 16.1 mph - 0.00 in Snow Light Snow
8:53 PM 28.9 °F 18.6 °F 27.0 °F 92% 29.30 in 9.0 mi East 12.7 mph - 0.00 in Snow Light Snow
9:53 PM 30.0 °F 21.7 °F 27.0 °F 88% 29.27 in 8.0 mi ENE 9.2 mph - 0.00 in Snow Light Snow
10:53 PM 28.9 °F 19.2 °F 27.0 °F 92% 29.24 in 10.0 mi ESE 11.5 mph - 0.00 in Snow Light Snow
11:53 PM 28.0 °F 24.2 °F 27.0 °F 96% 29.18 in 10.0 mi West 3.5 mph - 0.00 in   Overcast